This demonstration page uses our WeatherBlox Daily Observations layout. Learn more.

Hourly Observations for May 24, 2016

Temp ( °F °C ) Dew Point ( °F °C ) Humidity (%) Winds ( mph kmh ) Pressure ( in mb ) Visibility ( mi km ) Precip ( " mm )
12:15 am 00:15 Clear 59 15 59 15 100 100 SW 5 7 29.97 1015 10 16.0934 0 0
12:35 am 00:35 Clear 59 15 59 15 100 100 W 5 7 29.97 1015 10 16.0934 0 0
12:55 am 00:55 Clear 59 15 59 15 100 100 Calm 29.97 1015 10 16.0934 0 0
1:15 am 01:15 Clear 59 15 57 14 94 94 Calm 29.97 1015 10 16.0934 0 0
1:35 am 01:35 Partly Cloudy 59 15 57 14 94 94 ENE 6 9 29.97 1015 10 16.0934 0 0
1:55 am 01:55 Mostly Cloudy 59 15 59 15 100 100 Calm 30 1016 10 16.0934 0 0
2:15 am 02:15 Cloudy 59 15 59 15 100 100 W 3 6 29.97 1015 10 16.0934 0 0
2:35 am 02:35 Mostly Cloudy 59 15 59 15 100 100 SW 6 9 29.97 1015 10 16.0934 0 0
2:55 am 02:55 Cloudy 59 15 59 15 100 100 W 5 7 29.97 1015 10 16.0934 0 0
3:15 am 03:15 Partly Cloudy 59 15 59 15 100 100 W 7 11 29.97 1015 10 16.0934 0 0
3:35 am 03:35 Partly Cloudy 59 15 57 14 94 94 W 5 7 29.97 1015 10 16.0934 0 0
3:55 am 03:55 Partly Cloudy 59 15 55 13 88 88 W 5 7 29.97 1015 10 16.0934 0 0
4:15 am 04:15 Clear 57 14 55 13 94 94 W 7 11 29.97 1015 10 16.0934 0 0
4:35 am 04:35 Clear 57 14 55 13 94 94 W 6 9 29.97 1015 10 16.0934 0 0
4:55 am 04:55 Clear 57 14 55 13 94 94 W 8 13 29.97 1015 10 16.0934 0 0
5:15 am 05:15 Clear 59 15 55 13 88 88 W 9 15 29.97 1015 10 16.0934 0 0
5:35 am 05:35 Clear 59 15 55 13 88 88 Calm 29.97 1015 10 16.0934 0 0
5:55 am 05:55 Sunny 59 15 54 12 82 82 WNW 10 17 29.97 1015 10 16.0934 0 0
6:15 am 06:15 Sunny 61 16 55 13 83 83 NW 6 9 29.97 1015 10 16.0934 0 0
6:35 am 06:35 Sunny 61 16 55 13 83 83 NW 7 11 30 1016 10 16.0934 0 0
6:55 am 06:55 Sunny 61 16 55 13 83 83 W 10 17 30 1016 10 16.0934 0 0
7:15 am 07:15 Sunny 63 17 55 13 77 77 Calm 30 1016 10 16.0934 0 0
7:35 am 07:35 Sunny 63 17 55 13 77 77 Calm 30 1016 10 16.0934 0 0
7:55 am 07:55 Sunny 66 19 55 13 68 68 NNW 3 6 30.03 1017 10 16.0934 0 0
8:15 am 08:15 Partly Cloudy 66 19 55 13 68 68 NNW 6 9 30.03 1017 10 16.0934 0 0
8:35 am 08:35 Sunny 68 20 57 14 69 69 NW 10 17 30.03 1017 10 16.0934 0 0
8:55 am 08:55 Sunny 70 21 57 14 64 64 NW 12 19 30.03 1017 10 16.0934 0 0
9:15 am 09:15 Sunny 70 21 55 13 60 60 NW 13 20 30.03 1017 10 16.0934 0 0
9:35 am 09:35 Sunny 72 22 55 13 57 57 NNW 12 19 30.03 1017 10 16.0934 0 0
9:55 am 09:55 Sunny 72 22 55 13 57 57 NW 13 20 30.03 1017 10 16.0934 0 0
10:15 am 10:15 Sunny 73 23 55 13 53 53 NW 9 15 30.06 1018 10 16.0934 0 0
10:35 am 10:35 Sunny 73 23 57 14 57 57 NW 14 22 30.03 1017 10 16.0934 0 0
10:55 am 10:55 Sunny 73 23 55 13 53 53 NW 12 19 30.06 1018 10 16.0934 0 0
11:15 am 11:15 Sunny 75 24 57 14 54 54 NW 9 15 30.06 1018 10 16.0934 0 0
11:35 am 11:35 Sunny 77 25 57 14 51 51 NW 9 15 30.06 1018 10 16.0934 0 0
11:55 am 11:55 Sunny 79 26 55 13 45 45 NW 12 19 30.06 1018 10 16.0934 0 0
12:15 pm 12:15 Sunny 79 26 55 13 45 45 NW 8 13 30.03 1017 10 16.0934 0 0
12:35 pm 12:35 Sunny 79 26 52 11 39 39 NNW 9 15 30.06 1018 10 16.0934 0 0
12:55 pm 12:55 Sunny 79 26 54 12 42 42 WNW 12 19 30.03 1017 10 16.0934 0 0
1:15 pm 13:15 Sunny 81 27 54 12 39 39 NW 14 22 30.03 1017 10 16.0934 0 0
1:35 pm 13:35 Sunny 81 27 54 12 39 39 NNW 12 19 30.03 1017 10 16.0934 0 0
1:55 pm 13:55 Sunny 81 27 54 12 39 39 NW 13 20 30.03 1017 10 16.0934 0 0
2:15 pm 14:15 Partly Cloudy 81 27 54 12 39 39 WNW 9 15 30.03 1017 10 16.0934 0 0
2:35 pm 14:35 Partly Cloudy 82 28 54 12 37 37 W 12 19 30 1016 10 16.0934 0 0
2:55 pm 14:55 Partly Cloudy 81 27 52 11 37 37 NW 14 22 30 1016 10 16.0934 0 0
3:15 pm 15:15 Partly Cloudy 82 28 52 11 35 35 NW 13 20 30 1016 10 16.0934 0 0
3:35 pm 15:35 Partly Cloudy 81 27 54 12 39 39 NNW 7 11 30 1016 10 16.0934 0 0
3:55 pm 15:55 Partly Cloudy 81 27 54 12 39 39 NNW 7 11 30 1016 10 16.0934 0 0
4:15 pm 16:15 Mostly Cloudy 81 27 52 11 37 37 WNW 10 17 30 1016 10 16.0934 0 0
4:35 pm 16:35 Mostly Cloudy 82 28 52 11 35 35 NW 15 24 30 1016 10 16.0934 0 0
4:55 pm 16:55 Partly Cloudy 82 28 52 11 35 35 NW 17 28 30 1016 10 16.0934 0 0
5:15 pm 17:15 Partly Cloudy 81 27 52 11 37 37 WNW 14 22 30 1016 10 16.0934 0 0
5:35 pm 17:35 Partly Cloudy 82 28 50 10 32 32 WNW 13 20 30 1016 10 16.0934 0 0
5:55 pm 17:55 Sunny 82 28 52 11 35 35 NW 14 22 30 1016 10 16.0934 0 0
6:15 pm 18:15 Partly Cloudy 82 28 50 10 32 32 WNW 12 19 30 1016 10 16.0934 0 0
6:35 pm 18:35 Sunny 81 27 50 10 34 34 NW 12 19 30 1016 10 16.0934 0 0
6:55 pm 18:55 Sunny 81 27 52 11 37 37 NW 13 20 30 1016 10 16.0934 0 0
7:15 pm 19:15 Sunny 79 26 52 11 39 39 NW 10 17 30.03 1017 10 16.0934 0 0
7:35 pm 19:35 Sunny 79 26 54 12 42 42 WNW 12 19 30.03 1017 10 16.0934 0 0
7:55 pm 19:55 Sunny 79 26 54 12 42 42 W 3 6 30.03 1017 10 16.0934 0 0
8:15 pm 20:15 Sunny 77 25 52 11 42 42 W 7 11 30.03 1017 10 16.0934 0 0
8:35 pm 20:35 Clear 73 23 52 11 47 47 Calm 30.03 1017 10 16.0934 0 0
8:55 pm 20:55 Clear 70 21 55 13 60 60 WSW 3 6 30.03 1017 10 16.0934 0 0
9:15 pm 21:15 Clear 70 21 55 13 60 60 Calm 30.06 1018 10 16.0934 0 0
9:35 pm 21:35 Clear 66 19 57 14 73 73 W 3 6 30.06 1018 10 16.0934 0 0
9:55 pm 21:55 Clear 64 18 59 15 83 83 Calm 30.06 1018 10 16.0934 0 0
10:15 pm 22:15 Clear 64 18 55 13 73 73 W 6 9 30.06 1018 10 16.0934 0 0
10:35 pm 22:35 Clear 64 18 55 13 73 73 Calm 30.06 1018 10 16.0934 0 0
10:55 pm 22:55 Clear 64 18 55 13 73 73 W 5 7 30.09 1019 10 16.0934 0 0
11:15 pm 23:15 Clear 63 17 55 13 77 77 Calm 30.09 1019 10 16.0934 0 0
11:35 pm 23:35 Clear 64 18 55 13 73 73 W 5 7 30.09 1019 10 16.0934 0 0
11:55 pm 23:55 Clear 63 17 55 13 77 77 WSW 3 6 30.09 1019 10 16.0934 0 0

Powered by AerisWeather